Date String (YYYY-MM-DD hh:mm:ss) UTC,Instrument flags,absolute air pressure of the measurement (hPa),sample flow rate (lpm),inlet stack bypass flow (lpm),air temperature of the measurement (°C),ambient temperature measured by the external sensor (°C),aerosol sample conditioner tube jacket temperature (°C),OPC LED temperature (°C),internal box temperature (°C),relative humidity of the measurement (%),span deviation,mass concentration of particles derived from Lorenz-Mie calculation of OPC scattering (μg/m³),mass concentration of particles derived from Lorenz-Mie calculation of OPC scattering (μg/m³),mass concentration of particles derived from Lorenz-Mie calculation of OPC scattering (μg/m³)
DateTimeUTC,F1_M11,P_M11,Q1_M11,Q2_M11,T1_M11,T2_M11,T3_M11,T4_M11,T5_M11,U1_M11,ZSPAN_M11,X2_M11,X0_M11,X1_M11
2024-01-13 13:00:00,SystemResetWarning,0821.7,5.00,000.00,019.0,018.3,000.0,027.4,020.0,3.3,0000.0,0002.52,0004.23,0002.10
2024-01-13 13:01:00,SystemResetWarning,0822.0,5.00,000.00,019.0,018.0,000.0,027.4,020.0,3.3,0000.0,0002.53,0005.10,0002.06
2024-01-13 13:02:00,SystemResetWarning,0822.1,5.01,000.00,019.0,018.2,000.0,027.4,020.4,3.3,0000.0,0002.49,0004.90,0002.01
2024-01-13 13:03:00,SystemResetWarning,0822.2,5.01,000.00,019.1,018.9,000.0,027.4,020.9,3.2,0000.0,0002.45,0004.86,0001.98
2024-01-13 13:04:00,SystemResetWarning,0822.4,4.99,000.00,019.3,019.3,000.0,027.4,020.9,3.2,0000.0,0002.40,0004.80,0001.95
2024-01-13 13:05:00,SystemResetWarning,0822.4,4.99,000.00,019.2,019.1,000.0,027.4,020.5,3.2,0000.0,0002.32,0004.66,0001.89
2024-01-13 13:06:00,SystemResetWarning,0822.2,5.02,000.00,019.1,018.7,000.0,027.4,020.1,3.2,0000.0,0002.33,0004.81,0001.85
2024-01-13 13:07:00,SystemResetWarning,0822.1,5.01,000.00,019.0,018.4,000.0,027.4,020.0,3.2,0000.0,0002.29,0004.81,0001.81
2024-01-13 13:08:00,SystemResetWarning,0821.9,5.00,000.00,019.0,018.1,000.0,027.4,020.0,3.2,0000.0,0002.24,0004.77,0001.77
2024-01-13 13:09:00,SystemResetWarning,0822.0,5.00,000.00,019.0,018.0,000.0,027.4,020.2,3.2,0000.0,0002.22,0004.77,0001.75
2024-01-13 13:10:00,SystemResetWarning,0822.1,5.01,000.00,019.1,018.5,000.0,027.4,020.6,3.1,0000.0,0002.18,0004.66,0001.72
2024-01-13 13:11:00,SystemResetWarning,0822.2,4.99,000.00,019.2,019.1,000.0,027.4,021.0,3.1,0000.0,0002.12,0004.43,0001.69
2024-01-13 13:12:00,SystemResetWarning,0822.1,5.00,000.00,019.2,019.1,000.0,027.4,020.7,3.1,0000.0,0002.03,0002.96,0001.67
2024-01-13 13:13:00,SystemResetWarning,0822.0,4.98,000.00,019.1,018.8,000.0,027.4,020.2,3.1,0000.0,0001.95,0002.80,0001.62
2024-01-13 13:14:00,SystemResetWarning,0822.1,5.00,000.00,019.0,018.4,000.0,027.4,020.0,3.1,0000.0,0001.92,0002.78,0001.59
2024-01-13 13:15:00,SystemResetWarning,0822.0,5.01,000.00,019.0,018.2,000.0,027.4,020.0,3.1,0000.0,0001.88,0002.73,0001.54
2024-01-13 13:16:00,SystemResetWarning,0822.1,5.00,000.00,019.0,018.0,000.0,027.4,020.1,3.1,0000.0,0001.85,0002.69,0001.51
2024-01-13 13:17:00,SystemResetWarning,0822.3,5.00,000.00,019.0,018.2,000.0,027.4,020.5,3.1,0000.0,0001.79,0002.52,0001.50
2024-01-13 13:18:00,SystemResetWarning,0822.4,5.00,000.00,019.1,018.9,000.0,027.4,020.9,3.1,0000.0,0001.75,0002.39,0001.49
2024-01-13 13:19:00,SystemResetWarning,0822.4,5.00,000.00,019.2,019.3,000.0,027.4,020.9,3.0,0000.0,0001.73,0002.40,0001.47
2024-01-13 13:20:00,SystemResetWarning,0822.4,4.99,000.00,019.2,019.1,000.0,027.4,020.4,3.0,0000.0,0001.70,0002.33,0001.45
2024-01-13 13:21:00,SystemResetWarning,0822.3,4.99,000.00,019.1,018.7,000.0,027.4,020.1,3.0,0000.0,0001.71,0002.41,0001.45
2024-01-13 13:22:00,SystemResetWarning,0822.3,5.00,000.00,019.0,018.4,000.0,027.4,020.0,3.0,0000.0,0001.75,0002.51,0001.45
2024-01-13 13:23:00,SystemResetWarning,0822.3,5.00,000.00,019.0,018.1,000.0,027.4,020.0,3.1,0000.0,0001.74,0002.50,0001.43
2024-01-13 13:24:00,SystemResetWarning,0822.2,5.00,000.00,019.0,018.0,000.0,027.4,020.1,3.1,0000.0,0001.75,0002.51,0001.43
2024-01-13 13:25:00,SystemResetWarning,0822.3,5.01,000.00,019.0,018.3,000.0,027.4,020.5,3.1,0000.0,0001.78,0002.56,0001.43
2024-01-13 13:26:00,SystemResetWarning,0822.4,5.00,000.00,019.2,018.9,000.0,027.4,020.9,3.0,0000.0,0001.78,0002.64,0001.42
2024-01-13 13:27:00,SystemResetWarning,0822.4,4.99,000.00,019.3,019.3,000.0,027.4,020.9,3.0,0000.0,0001.79,0002.72,0001.41
2024-01-13 13:28:00,SystemResetWarning,0822.4,4.99,000.00,019.2,019.1,000.0,027.4,020.5,3.0,0000.0,0001.81,0002.98,0001.39
2024-01-13 13:29:00,SystemResetWarning,0822.4,4.99,000.00,019.1,018.8,000.0,027.4,020.1,3.0,0000.0,0001.79,0002.97,0001.37
2024-01-13 13:30:00,SystemResetWarning,0822.4,5.00,000.00,019.0,018.5,000.0,027.4,020.0,3.1,0000.0,0001.78,0002.89,0001.37
2024-01-13 13:31:00,SystemResetWarning,0822.4,5.00,000.00,019.0,018.2,000.0,027.4,020.0,3.1,0000.0,0001.81,0004.10,0001.37
2024-01-13 13:32:00,SystemResetWarning,0822.9,5.00,000.00,019.0,018.0,000.0,027.4,020.1,3.1,0000.0,0001.82,0004.98,0001.35
2024-01-13 13:33:00,SystemResetWarning,0822.7,5.01,000.00,019.0,018.2,000.0,027.4,020.5,3.0,0000.0,0001.76,0004.85,0001.32
2024-01-13 13:34:00,SystemResetWarning,0822.7,4.99,000.00,019.1,018.9,000.0,027.4,020.9,3.0,0000.0,0001.74,0004.82,0001.33
2024-01-13 13:35:00,SystemResetWarning,0822.4,5.00,000.00,019.3,019.2,000.0,027.4,020.9,3.0,0000.0,0001.76,0004.86,0001.34
2024-01-13 13:36:00,SystemResetWarning,0822.4,4.99,000.00,019.2,019.0,000.0,027.4,020.5,3.0,0000.0,0001.72,0004.80,0001.32
2024-01-13 13:37:00,SystemResetWarning,0822.4,4.99,000.00,019.1,018.7,000.0,027.4,020.1,3.0,0000.0,0001.70,0004.74,0001.32
2024-01-13 13:38:00,SystemResetWarning,0822.9,4.99,000.00,019.0,018.4,000.0,027.4,020.0,3.0,0000.0,0001.70,0004.75,0001.31
2024-01-13 13:39:00,SystemResetWarning,0822.7,5.00,000.00,019.0,018.1,000.0,027.4,020.0,3.0,0000.0,0001.67,0005.67,0001.31
2024-01-13 13:40:00,SystemResetWarning,0822.6,5.01,000.00,019.0,018.0,000.0,027.4,020.1,3.0,0000.0,0001.67,0005.66,0001.32
2024-01-13 13:41:00,SystemResetWarning,0822.5,5.01,000.00,019.0,018.3,000.0,027.4,020.5,3.0,0000.0,0001.69,0005.67,0001.34
2024-01-13 13:42:00,SystemResetWarning,0823.1,4.99,000.00,019.1,018.9,000.0,027.4,020.9,3.0,0000.0,0001.67,0004.58,0001.35
2024-01-13 13:43:00,SystemResetWarning,0822.8,5.00,000.00,019.3,019.3,000.0,027.4,020.9,2.9,0000.0,0001.64,0003.51,0001.35
2024-01-13 13:44:00,SystemResetWarning,0822.4,5.00,000.00,019.2,019.2,000.0,027.4,020.5,2.9,0000.0,0001.67,0003.58,0001.38
2024-01-13 13:45:00,SystemResetWarning,0822.4,5.00,000.00,019.2,018.8,000.0,027.4,020.2,2.9,0000.0,0001.69,0003.70,0001.38
2024-01-13 13:46:00,SystemResetWarning,0822.4,5.00,000.00,019.1,018.5,000.0,027.4,020.0,2.9,0000.0,0001.72,0003.86,0001.37
2024-01-13 13:47:00,SystemResetWarning,0822.7,5.00,000.00,019.0,018.3,000.0,027.4,020.0,3.0,0000.0,0001.74,0003.89,0001.38
2024-01-13 13:48:00,SystemResetWarning,0822.7,5.00,000.00,019.0,018.0,000.0,027.4,020.0,3.0,0000.0,0001.76,0004.20,0001.38
2024-01-13 13:49:00,SystemResetWarning,0822.7,5.01,000.00,019.0,018.0,000.0,027.4,020.2,2.9,0000.0,0001.76,0004.24,0001.39
2024-01-13 13:50:00,SystemResetWarning,0822.8,5.01,000.00,019.1,018.6,000.0,027.4,020.7,2.9,0000.0,0001.78,0003.25,0001.40
2024-01-13 13:51:00,SystemResetWarning,0822.7,5.00,000.00,019.2,019.2,000.0,027.4,021.0,2.9,0000.0,0001.79,0003.20,0001.41
2024-01-13 13:52:00,SystemResetWarning,0823.0,4.99,000.00,019.3,019.2,000.0,027.4,020.8,2.9,0000.0,0001.78,0003.16,0001.40
2024-01-13 13:53:00,SystemResetWarning,0822.8,4.99,000.00,019.2,019.0,000.0,027.4,020.3,2.9,0000.0,0001.79,0003.19,0001.39
2024-01-13 13:54:00,SystemResetWarning,0822.7,5.01,000.00,019.1,018.6,000.0,027.4,020.0,2.9,0000.0,0001.80,0003.32,0001.38
2024-01-13 13:55:00,SystemResetWarning,0822.7,5.01,000.00,019.0,018.4,000.0,027.4,020.0,2.9,0000.0,0001.81,0003.40,0001.38
2024-01-13 13:56:00,SystemResetWarning,0822.4,4.99,000.00,019.0,018.1,000.0,027.4,020.0,2.9,0000.0,0001.81,0003.33,0001.38
2024-01-13 13:57:00,SystemResetWarning,0822.4,4.99,000.00,019.0,018.0,000.0,027.4,020.1,2.9,0000.0,0001.80,0003.26,0001.38
2024-01-13 13:58:00,SystemResetWarning,0822.8,5.01,000.00,019.0,018.3,000.0,027.4,020.5,2.9,0000.0,0001.76,0003.18,0001.38
2024-01-13 13:59:00,SystemResetWarning,0823.3,5.02,000.00,019.1,018.9,000.0,027.4,020.9,2.9,0000.0,0001.75,0002.95,0001.39
